{"data":{"norad_id":65618,"epoch":"2026-05-25T04:52:37.712064Z","epoch_age_seconds":71567,"freshness":"FRESH","line1":"1 65618U 25209B   26145.20321426 -.00000073  00000+0  99335-4 0  9995","line2":"2 65618  49.9994  83.4803 0001859  27.5716 332.5259 13.41461669 34556","mean_motion":13.41461669,"eccentricity":0.0001859,"inclination_deg":49.9994,"raan_deg":83.4803,"arg_perigee_deg":27.5716,"mean_anomaly_deg":332.5259,"bstar":9.9335e-5,"rev_number":3455,"period_min":107.3455942333,"perigee_km":1102.4484243985,"apogee_km":1105.2302231956,"semimajor_km":7481.9763237971,"source":"CELESTRAK","updated_at":"2026-05-25T13:38:05.554341Z"}}